[Iaude] MPEC M86: 2019 GT184 [a=43.75,e=0.07,i=4.0,H=7.94]
    mpec at cfa.harvard.edu 
    mpec at cfa.harvard.edu
       
    Thu Jun 27 03:51:27 EDT 2024
    
    
  
M.P.E.C. 2024-M86                                 Issued 2024 June 27, 07:49 UT
     The Minor Planet Electronic Circulars contain information on unusual
         minor planets, routine data on comets and natural satellites,
         and occasional editorial announcements.  They are published
    on behalf of Division F of the International Astronomical Union by the
          Minor Planet Center, Smithsonian Astrophysical Observatory,
                          Cambridge, MA 02138, U.S.A.
			  
             Prepared using the Tamkin Foundation Computer Network
                              MPC at CFA.HARVARD.EDU
            URL https://www.minorplanetcenter.net/    ISSN 1523-6714
                                   2019 GT184                                   
Additional Observations:
     K19GI4T &C2018 04 13.13681612 04 10.76 +03 09 19.8                WEM086W84
     K19GI4T 1C2018 04 22.36725512 03 37.49 +03 12 31.8                WEM086T09
     K19GI4T 1C2019 02 28.55738012 11 07.39 +02 21 32.8                WEM086T09
     K19GI4T 1C2019 02 28.61057212 11 07.17 +02 21 34.0                WEM086T09
Observer details:
T09 Subaru Telescope, Maunakea.  Observer .  Measurer S. Deen.  8.3-m Subaru
    Telescope + CCD.
W84 Cerro Tololo-DECam.  Observer S. Sheppard.  Measurer S. Deen.  4.0-m
    reflector + CCD.
Orbital elements:
2019 GT184                                                                      
Epoch 2024 Mar. 31.0 TT = JDT 2460400.5                 Alexandersen            
M 200.15472              (2000.0)            P               Q                  
n   0.00340652     Peri.  294.30174     +0.97976737     +0.19193681             
a  43.7450651      Node    54.67983     -0.14898688     +0.88866301             
e   0.0680432      Incl.    3.98553     -0.13363684     +0.41645926             
P 289              H    7.94          G   0.15           U   8                  
Residuals in seconds of arc
180413 W84  0.1-  0.2-    190228 T09  0.2-  0.2-    190405 T09  0.1-  0.2-
180422 T09  0.1+  0.1+    190404 T09  0.2-  0.3+    190405 T09  0.0   0.3-
190205 T09  0.1-  0.1+    190404 T09  0.1+  0.1+    190405 T09  0.0   0.0
190205 T09  0.0   0.2+    190404 T09  0.1-  0.0     190405 T09  0.0   0.0
190205 T09  0.1+  0.0     190404 T09  0.3+  0.0     190405 T09  0.1+  0.1-
190205 T09  0.1+  0.0     190404 T09  0.1-  0.2+
190228 T09  0.1+  0.0     190404 T09  0.0   0.0
Ephemeris:
2019 GT184               a,e,i = 43.75, 0.07, 4                  q = 40.7685
Date    TT    R. A. (2000) Decl.     Delta      r    Elong.  Phase     V
2024 05 28    12 26 01.4 +00 26 19  46.0596 46.5582   118.9     1.1    24.8
...
2024 06 12    12 25 43.5 +00 27 07  46.2926 46.5574   104.5     1.2    24.8
...
2024 06 20    12 25 40.9 +00 26 47  46.4244 46.5569    96.9     1.2    24.8
...
2024 06 26    12 25 42.1 +00 26 10  46.5248 46.5566    91.2     1.3    24.8
2024 06 27    12 25 42.6 +00 26 02  46.5416 46.5565    90.2     1.3    24.8
2024 06 28    12 25 43.2 +00 25 54  46.5584 46.5565    89.3     1.3    24.8
...
2024 07 04    12 25 48.1 +00 24 54  46.6589 46.5562    83.6     1.2    24.8
...
2024 07 12    12 25 59.0 +00 23 06  46.7910 46.5557    76.0     1.2    24.8
...
2024 07 27    12 26 32.0 +00 18 27  47.0250 46.5549    61.9     1.1    24.8
M. P. C. Staff               (C) Copyright 2024 MPC           M.P.E.C. 2024-M86
    
    
More information about the Iaude
mailing list